Time,TemperatureF,DewpointF,PressureIn,WindDirection,WindDirectionDegrees,WindSpeedMPH,WindSpeedGustMPH,Humidity,HourlyPrecipIn,Conditions,Clouds,dailyrainin,SoftwareType,DateUTC
2013-03-31 00:02:00,-999.0,-99.9,-100.00,SSW,208,8.0,-999.0,-999,-99.99,,,-99.99,,2013-03-31 07:02:00,
2013-03-31 00:12:00,-999.0,-99.9,-100.00,SSW,213,8.0,-999.0,-999,-99.99,,,-99.99,,2013-03-31 07:12:00,
2013-03-31 00:22:00,-999.0,-99.9,-100.00,SSW,202,9.0,-999.0,-999,-99.99,,,-99.99,,2013-03-31 07:22:00,
2013-03-31 00:33:00,-999.0,-99.9,-100.00,SSW,202,9.0,-999.0,-999,-99.99,,,-99.99,,2013-03-31 07:33:00,
2013-03-31 00:42:00,62.0,29.0,-100.00,SSW,208,8.0,-999.0,28,-99.99,,,0.00,,2013-03-31 07:42:00,
2013-03-31 00:52:00,62.0,29.0,-100.00,SSW,208,8.0,-999.0,28,-99.99,,,0.00,,2013-03-31 07:52:00,
2013-03-31 01:02:00,-999.0,-99.9,-100.00,SSW,213,9.0,-999.0,-999,-99.99,,,-99.99,,2013-03-31 08:02:00,
2013-03-31 01:13:00,-999.0,-99.9,-100.00,SW,219,10.0,-999.0,-999,-99.99,,,-99.99,,2013-03-31 08:13:00,
2013-03-31 01:22:00,-999.0,-99.9,-100.00,SW,219,10.0,-999.0,-999,-99.99,,,-99.99,,2013-03-31 08:22:00,
2013-03-31 01:33:00,-999.0,-99.9,-100.00,SW,219,11.0,-999.0,-999,-99.99,,,-99.99,,2013-03-31 08:33:00,
2013-03-31 01:43:00,-999.0,-99.9,-100.00,SW,219,10.0,-999.0,-999,-99.99,,,-99.99,,2013-03-31 08:43:00,
2013-03-31 01:52:00,-999.0,-99.9,-100.00,SW,219,10.0,-999.0,-999,-99.99,,,-99.99,,2013-03-31 08:52:00,
2013-03-31 02:02:00,-999.0,-99.9,-100.00,SW,219,11.0,-999.0,-999,-99.99,,,-99.99,,2013-03-31 09:02:00,
2013-03-31 02:12:00,-999.0,-99.9,-100.00,SW,225,10.0,-999.0,-999,-99.99,,,-99.99,,2013-03-31 09:12:00,
2013-03-31 02:22:00,-999.0,-99.9,-100.00,SW,225,10.0,-999.0,-999,-99.99,,,-99.99,,2013-03-31 09:22:00,
2013-03-31 02:43:00,-999.0,-99.9,-100.00,SSW,208,11.0,-999.0,-999,-99.99,,,-99.99,,2013-03-31 09:43:00,
2013-03-31 02:54:00,-999.0,-99.9,-100.00,SSW,213,12.0,-999.0,-999,-99.99,,,-99.99,,2013-03-31 09:54:00,
2013-03-31 03:03:00,-999.0,-99.9,-100.00,SSW,213,12.0,-999.0,-999,-99.99,,,-99.99,,2013-03-31 10:03:00,
2013-03-31 03:13:00,-999.0,-99.9,-100.00,SSW,213,12.0,-999.0,-999,-99.99,,,-99.99,,2013-03-31 10:13:00,
2013-03-31 03:24:00,-999.0,-99.9,-100.00,SW,219,10.0,-999.0,-999,-99.99,,,-99.99,,2013-03-31 10:24:00,
2013-03-31 03:33:00,-999.0,-99.9,-100.00,SW,219,11.0,-999.0,-999,-99.99,,,-99.99,,2013-03-31 10:33:00,
2013-03-31 03:42:00,-999.0,-99.9,-100.00,SSW,213,12.0,-999.0,-999,-99.99,,,-99.99,,2013-03-31 10:42:00,
2013-03-31 03:53:00,-999.0,-99.9,-100.00,SSW,213,13.0,-999.0,-999,-99.99,,,-99.99,,2013-03-31 10:53:00,
2013-03-31 04:03:00,-999.0,-99.9,-100.00,SSW,213,13.0,-999.0,-999,-99.99,,,-99.99,,2013-03-31 11:03:00,
2013-03-31 04:12:00,-999.0,-99.9,-100.00,SSW,213,13.0,-999.0,-999,-99.99,,,-99.99,,2013-03-31 11:12:00,
2013-03-31 04:23:00,-999.0,-99.9,-100.00,SSW,213,13.0,-999.0,-999,-99.99,,,-99.99,,2013-03-31 11:23:00,
2013-03-31 04:33:00,-999.0,-99.9,-100.00,SSW,196,13.0,-999.0,-999,-99.99,,,-99.99,,2013-03-31 11:33:00,
2013-03-31 04:43:00,-999.0,-99.9,-100.00,SSW,208,13.0,-999.0,-999,-99.99,,,-99.99,,2013-03-31 11:43:00,
2013-03-31 04:53:00,-999.0,-99.9,-100.00,SSW,208,13.0,-999.0,-999,-99.99,,,-99.99,,2013-03-31 11:53:00,
2013-03-31 05:03:00,-999.0,-99.9,-100.00,SSW,208,12.0,-999.0,-999,-99.99,,,-99.99,,2013-03-31 12:03:00,
2013-03-31 05:23:00,59.0,-99.9,-100.00,North,-999,-999.0,-999.0,-999,-99.99,,,-99.99,,2013-03-31 12:23:00,
2013-03-31 05:33:00,59.0,-99.9,-100.00,North,-999,-999.0,-999.0,-999,-99.99,,,-99.99,,2013-03-31 12:33:00,
2013-03-31 05:42:00,59.0,-99.9,-100.00,North,-999,-999.0,-999.0,-999,-99.99,,,-99.99,,2013-03-31 12:42:00,
2013-03-31 05:53:00,-999.0,-99.9,-100.00,SSW,196,9.0,-999.0,-999,-99.99,,,-99.99,,2013-03-31 12:53:00,
2013-03-31 06:02:00,-999.0,-99.9,-100.00,SSW,202,12.0,-999.0,-999,-99.99,,,-99.99,,2013-03-31 13:02:00,
2013-03-31 06:12:00,-999.0,-99.9,-100.00,SW,219,11.0,-999.0,-999,-99.99,,,-99.99,,2013-03-31 13:12:00,
2013-03-31 06:23:00,-999.0,-99.9,-100.00,SW,219,11.0,-999.0,-999,-99.99,,,-99.99,,2013-03-31 13:23:00,
2013-03-31 06:53:00,-999.0,-99.9,-100.00,SW,236,8.0,-999.0,-999,-99.99,,,-99.99,,2013-03-31 13:53:00,
2013-03-31 07:03:00,-999.0,-99.9,-100.00,SW,236,8.0,-999.0,-999,-99.99,,,-99.99,,2013-03-31 14:03:00,
2013-03-31 07:13:00,-999.0,-99.9,-100.00,WSW,241,7.0,-999.0,-999,-99.99,,,-99.99,,2013-03-31 14:13:00,
2013-03-31 07:33:00,-999.0,-99.9,-100.00,SSW,213,13.0,-999.0,-999,-99.99,,,-99.99,,2013-03-31 14:33:00,
2013-03-31 07:43:00,-999.0,-99.9,-100.00,SSW,196,13.0,-999.0,-999,-99.99,,,-99.99,,2013-03-31 14:43:00,
2013-03-31 07:53:00,-999.0,-99.9,-100.00,SSW,196,12.0,-999.0,-999,-99.99,,,-99.99,,2013-03-31 14:53:00,
2013-03-31 08:03:00,-999.0,-99.9,-100.00,SSW,196,12.0,-999.0,-999,-99.99,,,-99.99,,2013-03-31 15:03:00,
2013-03-31 08:13:00,-999.0,-99.9,-100.00,SSW,196,12.0,-999.0,-999,-99.99,,,-99.99,,2013-03-31 15:13:00,
2013-03-31 08:23:00,-999.0,-99.9,-100.00,SSW,196,12.0,-999.0,-999,-99.99,,,-99.99,,2013-03-31 15:23:00,
2013-03-31 08:34:00,-999.0,-99.9,-100.00,SSW,196,12.0,-999.0,-999,-99.99,,,-99.99,,2013-03-31 15:34:00,
2013-03-31 08:44:00,-999.0,-99.9,-100.00,SSW,213,15.0,-999.0,-999,-99.99,,,-99.99,,2013-03-31 15:44:00,
2013-03-31 08:54:00,-999.0,-99.9,-100.00,SSW,213,15.0,-999.0,-999,-99.99,,,-99.99,,2013-03-31 15:54:00,
2013-03-31 09:02:00,66.0,35.0,-100.00,North,-999,-999.0,-999.0,32,-99.99,,,-99.99,,2013-03-31 16:02:00,
2013-03-31 09:14:00,-999.0,-99.9,-100.00,SW,225,18.0,-999.0,-999,-99.99,,,-99.99,,2013-03-31 16:14:00,
2013-03-31 09:23:00,-999.0,-99.9,-100.00,SW,225,20.0,-999.0,-999,-99.99,,,-99.99,,2013-03-31 16:23:00,
2013-03-31 09:34:00,-999.0,-99.9,-100.00,SW,225,20.0,-999.0,-999,-99.99,,,-99.99,,2013-03-31 16:34:00,
2013-03-31 09:43:00,-999.0,-99.9,-100.00,SSW,202,21.0,-999.0,-999,-99.99,,,-99.99,,2013-03-31 16:43:00,
2013-03-31 09:54:00,-999.0,-99.9,-100.00,SSW,202,20.0,-999.0,-999,-99.99,,,-99.99,,2013-03-31 16:54:00,
2013-03-31 10:03:00,-999.0,-99.9,-100.00,SW,219,19.0,-999.0,-999,-99.99,,,-99.99,,2013-03-31 17:03:00,
2013-03-31 10:13:00,-999.0,-99.9,-100.00,South,180,17.0,-999.0,-999,-99.99,,,-99.99,,2013-03-31 17:13:00,
2013-03-31 10:23:00,-999.0,-99.9,-100.00,South,180,17.0,-999.0,-999,-99.99,,,-99.99,,2013-03-31 17:23:00,
2013-03-31 10:33:00,-999.0,-99.9,-100.00,South,180,14.0,-999.0,28,-99.99,,,-99.99,,2013-03-31 17:33:00,
2013-03-31 10:43:00,-999.0,-99.9,-100.00,SW,219,15.0,-999.0,-999,-99.99,,,-99.99,,2013-03-31 17:43:00,
2013-03-31 10:53:00,-999.0,-99.9,-100.00,SW,219,15.0,-999.0,-999,-99.99,,,-99.99,,2013-03-31 17:53:00,
2013-03-31 11:03:00,-999.0,-99.9,-100.00,SW,219,15.0,-999.0,-999,-99.99,,,-99.99,,2013-03-31 18:03:00,
2013-03-31 11:13:00,-999.0,-99.9,-100.00,SSW,196,14.0,-999.0,-999,-99.99,,,-99.99,,2013-03-31 18:13:00,
2013-03-31 11:22:00,-999.0,-99.9,-100.00,SSW,196,14.0,-999.0,-999,-99.99,,,-99.99,,2013-03-31 18:22:00,
2013-03-31 11:33:00,-999.0,-99.9,-100.00,SW,225,17.0,-999.0,-999,-99.99,,,-99.99,,2013-03-31 18:33:00,
2013-03-31 11:43:00,-999.0,-99.9,-100.00,SW,236,14.0,-999.0,-999,-99.99,,,-99.99,,2013-03-31 18:43:00,
2013-03-31 11:53:00,-999.0,-99.9,-100.00,SW,236,14.0,-999.0,-999,-99.99,,,-99.99,,2013-03-31 18:53:00,
2013-03-31 12:03:00,-999.0,-99.9,-100.00,WSW,241,15.0,-999.0,-999,-99.99,,,-99.99,,2013-03-31 19:03:00,
2013-03-31 12:13:00,-999.0,-99.9,-100.00,SW,230,13.0,-999.0,-999,-99.99,,,-99.99,,2013-03-31 19:13:00,
2013-03-31 12:23:00,-999.0,-99.9,-100.00,SW,230,13.0,-999.0,-999,-99.99,,,-99.99,,2013-03-31 19:23:00,
2013-03-31 12:42:00,74.0,38.0,-100.00,North,-999,-999.0,-999.0,26,-99.99,,,0.00,,2013-03-31 19:42:00,
2013-03-31 12:54:00,-999.0,-99.9,-100.00,SW,219,14.0,-999.0,-999,-99.99,,,-99.99,,2013-03-31 19:54:00,
2013-03-31 13:03:00,-999.0,-99.9,-100.00,SW,225,0.0,-999.0,-999,-99.99,,,-99.99,,2013-03-31 20:03:00,
2013-03-31 13:13:00,-999.0,-99.9,-100.00,SSW,213,14.0,-999.0,-999,-99.99,,,-99.99,,2013-03-31 20:13:00,
2013-03-31 13:23:00,-999.0,-99.9,-100.00,SSW,213,11.0,-999.0,25,-99.99,,,-99.99,,2013-03-31 20:23:00,
2013-03-31 13:34:00,-999.0,-99.9,-100.00,SSW,213,11.0,-999.0,25,-99.99,,,-99.99,,2013-03-31 20:34:00,
2013-03-31 13:44:00,-999.0,-99.9,-100.00,SW,225,14.0,-999.0,-999,-99.99,,,-99.99,,2013-03-31 20:44:00,
2013-03-31 13:53:00,-999.0,-99.9,-100.00,WSW,241,13.0,-999.0,-999,-99.99,,,-99.99,,2013-03-31 20:53:00,
2013-03-31 14:03:00,-999.0,-99.9,-100.00,SSW,213,12.0,-999.0,-999,-99.99,,,-99.99,,2013-03-31 21:03:00,
2013-03-31 14:12:00,77.0,38.0,-100.00,SSW,213,13.0,-999.0,24,-99.99,,,-99.99,,2013-03-31 21:12:00,
2013-03-31 14:23:00,-999.0,-99.9,-100.00,SSW,213,13.0,-999.0,-999,-99.99,,,-99.99,,2013-03-31 21:23:00,
2013-03-31 14:34:00,-999.0,-99.9,-100.00,SSW,213,13.0,-999.0,-999,-99.99,,,-99.99,,2013-03-31 21:34:00,
2013-03-31 14:44:00,-999.0,-99.9,-100.00,SSW,208,13.0,-999.0,-999,-99.99,,,-99.99,,2013-03-31 21:44:00,
2013-03-31 14:54:00,-999.0,-99.9,-100.00,SSW,208,13.0,-999.0,-999,-99.99,,,-99.99,,2013-03-31 21:54:00,
2013-03-31 15:04:00,-999.0,-99.9,-100.00,SSW,208,14.0,-999.0,22,-99.99,,,-99.99,,2013-03-31 22:04:00,
2013-03-31 15:13:00,-999.0,-99.9,-100.00,SW,225,17.0,-999.0,-999,-99.99,,,-99.99,,2013-03-31 22:13:00,
2013-03-31 15:24:00,-999.0,-99.9,-100.00,SW,225,17.0,-999.0,-999,-99.99,,,-99.99,,2013-03-31 22:24:00,
2013-03-31 15:34:00,-999.0,-99.9,-100.00,SSW,196,14.0,-999.0,-999,-99.99,,,-99.99,,2013-03-31 22:34:00,
2013-03-31 15:54:00,-999.0,-99.9,-100.00,SSW,196,13.0,-999.0,-999,-99.99,,,-99.99,,2013-03-31 22:54:00,
2013-03-31 16:03:00,-999.0,-99.9,-100.00,WSW,241,15.0,-999.0,-999,-99.99,,,-99.99,,2013-03-31 23:03:00,
2013-03-31 16:13:00,-999.0,-99.9,-100.00,WSW,241,14.0,-999.0,-999,-99.99,,,-99.99,,2013-03-31 23:13:00,
2013-03-31 16:23:00,-999.0,-99.9,-100.00,SW,225,14.0,-999.0,-999,-99.99,,,-99.99,,2013-03-31 23:23:00,
2013-03-31 16:33:00,-999.0,-99.9,-100.00,WSW,253,13.0,-999.0,-999,-99.99,,,-99.99,,2013-03-31 23:33:00,
2013-03-31 16:43:00,-999.0,-99.9,-100.00,SW,219,12.0,-999.0,-999,-99.99,,,-99.99,,2013-03-31 23:43:00,
2013-03-31 16:54:00,-999.0,-99.9,-100.00,SW,219,12.0,-999.0,-999,-99.99,,,-99.99,,2013-03-31 23:54:00,
2013-03-31 17:03:00,-999.0,-99.9,-100.00,SW,219,13.0,-999.0,-999,-99.99,,,-99.99,,2013-04-01 00:03:00,
2013-03-31 17:13:00,-999.0,-99.9,-100.00,WSW,247,14.0,-999.0,-999,-99.99,,,-99.99,,2013-04-01 00:13:00,
2013-03-31 17:23:00,-999.0,-99.9,-100.00,WSW,247,14.0,-999.0,-999,-99.99,,,-99.99,,2013-04-01 00:23:00,
2013-03-31 17:33:00,-999.0,-99.9,-100.00,SW,230,14.0,-999.0,-999,-99.99,,,-99.99,,2013-04-01 00:33:00,
2013-03-31 17:43:00,-999.0,-99.9,-100.00,SW,230,14.0,-999.0,-999,-99.99,,,-99.99,,2013-04-01 00:43:00,
2013-03-31 17:53:00,-999.0,-99.9,-100.00,SW,225,12.0,-999.0,-999,-99.99,,,-99.99,,2013-04-01 00:53:00,
2013-03-31 18:03:00,-999.0,-99.9,-100.00,SW,225,12.0,-999.0,-999,-99.99,,,-99.99,,2013-04-01 01:03:00,
2013-03-31 18:13:00,-999.0,-99.9,-100.00,WSW,247,12.0,-999.0,-999,-99.99,,,-99.99,,2013-04-01 01:13:00,
2013-03-31 18:23:00,-999.0,-99.9,-100.00,SW,230,12.0,-999.0,-999,-99.99,,,-99.99,,2013-04-01 01:23:00,
2013-03-31 18:33:00,-999.0,-99.9,-100.00,SW,230,11.0,-999.0,-999,-99.99,,,-99.99,,2013-04-01 01:33:00,
2013-03-31 18:43:00,-999.0,-99.9,-100.00,WSW,241,13.0,-999.0,-999,-99.99,,,-99.99,,2013-04-01 01:43:00,
2013-03-31 18:53:00,-999.0,-99.9,-100.00,WSW,241,13.0,-999.0,-999,-99.99,,,-99.99,,2013-04-01 01:53:00,
2013-03-31 19:13:00,-999.0,-99.9,-100.00,WSW,241,11.0,-999.0,-999,-99.99,,,-99.99,,2013-04-01 02:13:00,
2013-03-31 19:23:00,-999.0,-99.9,-100.00,SW,225,13.0,-999.0,-999,-99.99,,,-99.99,,2013-04-01 02:23:00,
2013-03-31 19:33:00,-999.0,-99.9,-100.00,SW,225,11.0,-999.0,-999,-99.99,,,-99.99,,2013-04-01 02:33:00,
2013-03-31 19:43:00,-999.0,-99.9,-100.00,WSW,241,12.0,-999.0,-999,-99.99,,,-99.99,,2013-04-01 02:43:00,
2013-03-31 19:53:00,-999.0,-99.9,-100.00,WSW,241,12.0,-999.0,-999,-99.99,,,-99.99,,2013-04-01 02:53:00,
2013-03-31 20:03:00,-999.0,-99.9,-100.00,SW,230,12.0,-999.0,-999,-99.99,,,-99.99,,2013-04-01 03:03:00,
2013-03-31 20:12:00,-999.0,-99.9,-100.00,SSW,208,11.0,-999.0,-999,-99.99,,,-99.99,,2013-04-01 03:12:00,
2013-03-31 20:23:00,-999.0,-99.9,-100.00,SSW,208,11.0,-999.0,28,-99.99,,,-99.99,,2013-04-01 03:23:00,
2013-03-31 20:35:00,-999.0,-99.9,-100.00,SSW,208,11.0,-999.0,28,-99.99,,,-99.99,,2013-04-01 03:35:00,
2013-03-31 20:44:00,-999.0,-99.9,-100.00,SSW,213,9.0,-999.0,-999,-99.99,,,-99.99,,2013-04-01 03:44:00,
2013-03-31 20:53:00,-999.0,-99.9,-100.00,SSW,213,9.0,-999.0,-999,-99.99,,,-99.99,,2013-04-01 03:53:00,
2013-03-31 21:03:00,-999.0,-99.9,-100.00,SW,225,9.0,-999.0,-999,-99.99,,,-99.99,,2013-04-01 04:03:00,
2013-03-31 21:14:00,-999.0,-99.9,-100.00,WSW,241,10.0,-999.0,-999,-99.99,,,-99.99,,2013-04-01 04:14:00,
2013-03-31 21:24:00,-999.0,-99.9,-100.00,WSW,241,10.0,-999.0,-999,-99.99,,,-99.99,,2013-04-01 04:24:00,
2013-03-31 21:33:00,-999.0,-99.9,-100.00,SSW,213,11.0,-999.0,-999,-99.99,,,-99.99,,2013-04-01 04:33:00,
2013-03-31 22:02:00,65.0,37.0,-100.00,North,-999,-999.0,-999.0,35,-99.99,,,-99.99,,2013-04-01 05:02:00,
2013-03-31 22:12:00,65.0,37.0,-100.00,North,-999,-999.0,-999.0,35,-99.99,,,-99.99,,2013-04-01 05:12:00,
2013-03-31 23:02:00,-999.0,-99.9,-100.00,SSW,196,8.0,-999.0,41,-99.99,,,-99.99,,2013-04-01 06:02:00,
2013-03-31 23:13:00,-999.0,-99.9,-100.00,SSW,196,10.0,-999.0,-999,-99.99,,,-99.99,,2013-04-01 06:13:00,
2013-03-31 23:23:00,-999.0,-99.9,-100.00,SSW,196,10.0,-999.0,-999,-99.99,,,-99.99,,2013-04-01 06:23:00,
2013-03-31 23:34:00,-999.0,-99.9,-100.00,SSW,196,13.0,-999.0,-999,-99.99,,,-99.99,,2013-04-01 06:34:00,
2013-03-31 23:43:00,-999.0,-99.9,-100.00,SSW,196,12.0,-999.0,-999,-99.99,,,-99.99,,2013-04-01 06:43:00,
2013-03-31 23:53:00,-999.0,-99.9,-100.00,South,174,13.0,-999.0,-999,-99.99,,,-99.99,,2013-04-01 06:53:00,